• In Russia
  • List of Countries
  • For 7 days
  • Water Temperature
  • Satellite Maps
  • Weather Map
  • Weather Widgets
  • user-avatar
    Login

    Hourly Weather Lowech

    Today, 21 November, Wednesday

    Time Temperature Precipitation Wind Pressure Humidity
    00:00 +4°C° 0.4 mm 2 mps 737 mmHg 97%
    01:00 +4°C° 0.4 mm 2 mps 737 mmHg 98%
    02:00 +4°C° 0 mm 2 mps 737 mmHg 97%
    03:00 +4°C° 0.3 mm 2 mps 736 mmHg 97%
    04:00 +4°C° 0.3 mm 2 mps 736 mmHg 98%
    05:00 +4°C° 0.3 mm 2 mps 735 mmHg 98%
    06:00 +4°C° 0.5 mm 2 mps 735 mmHg 98%
    07:00 +5°C° 0.5 mm 2 mps 735 mmHg 98%
    08:00 +4°C° 0 mm 2 mps 735 mmHg 97%
    09:00 +5°C° 0.5 mm 2 mps 735 mmHg 96%
    10:00 +5°C° 0.5 mm 2 mps 734 mmHg 96%
    11:00 +5°C° 0.5 mm 2 mps 734 mmHg 95%
    12:00 +5°C° 0.9 mm 2 mps 734 mmHg 95%
    13:00 +5°C° 0.9 mm 2 mps 734 mmHg 95%
    14:00 +4°C° 0.9 mm 3 mps 734 mmHg 95%
    15:00 +3°C° 1.2 mm 3 mps 734 mmHg 94%
    16:00 +3°C° 1.2 mm 3 mps 735 mmHg 94%
    17:00 +3°C° 1.2 mm 3 mps 735 mmHg 94%
    18:00 +4°C° 0.8 mm 2 mps 735 mmHg 94%
    19:00 +4°C° 0.8 mm 2 mps 736 mmHg 94%
    20:00 +3°C° 0.8 mm 2 mps 736 mmHg 94%
    21:00 +3°C° 0.4 mm 2 mps 737 mmHg 93%
    22:00 +3°C° 0.4 mm 2 mps 737 mmHg 93%
    23:00 +3°C° 0.4 mm 2 mps 737 mmHg 93%

    Tomorrow, 22 November, Thursday

    Time Temperature Precipitation Wind Pressure Humidity
    00:00 +3°C° 0.3 mm 2 mps 738 mmHg 93%
    01:00 +3°C° 0.3 mm 2 mps 738 mmHg 93%
    02:00 +3°C° 0.3 mm 2 mps 738 mmHg 93%
    03:00 +3°C° 0.2 mm 2 mps 739 mmHg 93%
    04:00 +3°C° 0.2 mm 2 mps 739 mmHg 92%
    05:00 +3°C° 0.2 mm 2 mps 739 mmHg 92%
    06:00 +3°C° 0.2 mm 2 mps 739 mmHg 92%
    07:00 +3°C° 0.2 mm 2 mps 740 mmHg 92%
    08:00 +3°C° 0.2 mm 2 mps 740 mmHg 92%
    09:00 +3°C° 0.1 mm 2 mps 740 mmHg 90%
    10:00 +3°C° 0.1 mm 2 mps 741 mmHg 89%
    11:00 +3°C° 0.1 mm 2 mps 741 mmHg 87%
    12:00 +4°C° 0.1 mm 2 mps 741 mmHg 87%
    13:00 +4°C° 0.1 mm 2 mps 741 mmHg 86%
    14:00 +4°C° 0.1 mm 2 mps 741 mmHg 85%
    15:00 +4°C° 0.1 mm 2 mps 741 mmHg 87%
    16:00 +4°C° 0.1 mm 1 mps 741 mmHg 88%
    17:00 +4°C° 0.1 mm 1 mps 741 mmHg 89%
    18:00 +4°C° 0.1 mm 1 mps 742 mmHg 89%
    19:00 +4°C° 0.1 mm 1 mps 742 mmHg 90%
    20:00 +4°C° 0.1 mm 1 mps 742 mmHg 90%
    21:00 +4°C° 0.1 mm 1 mps 743 mmHg 90%
    22:00 +4°C° 0.1 mm 1 mps 743 mmHg 90%
    23:00 +3°C° 0.1 mm 1 mps 743 mmHg 90%

    Day after tomorrow, 23 November, Friday

    Time Temperature Precipitation Wind Pressure Humidity
    00:00 +3°C° 0 mm 1 mps 743 mmHg 90%
    01:00 +2°C° 0 mm 0 mps 743 mmHg 90%
    02:00 +2°C° 0 mm 0 mps 743 mmHg 90%
    03:00 +2°C° 0 mm 0 mps 743 mmHg 90%
    04:00 +2°C° 0 mm 0 mps 743 mmHg 89%
    05:00 +1°C° 0 mm 0 mps 744 mmHg 89%
    06:00 +1°C° 0 mm 0 mps 744 mmHg 88%
    07:00 +1°C° 0 mm 0 mps 744 mmHg 88%
    08:00 +1°C° 0 mm 0 mps 744 mmHg 87%
    09:00 +3°C° 0 mm 0 mps 745 mmHg 82%
    10:00 +5°C° 0 mm 1 mps 745 mmHg 77%
    11:00 +6°C° 0 mm 1 mps 745 mmHg 72%
    12:00 +7°C° 0 mm 1 mps 745 mmHg 69%
    13:00 +7°C° 0 mm 1 mps 745 mmHg 66%
    14:00 +8°C° 0 mm 1 mps 745 mmHg 63%
    15:00 +7°C° 0 mm 1 mps 745 mmHg 66%
    16:00 +6°C° 0 mm 1 mps 745 mmHg 69%
    17:00 +5°C° 0 mm 1 mps 745 mmHg 72%
    18:00 +5°C° 0 mm 1 mps 745 mmHg 73%
    19:00 +4°C° 0 mm 1 mps 745 mmHg 74%
    20:00 +4°C° 0 mm 1 mps 745 mmHg 75%
    21:00 +4°C° 0 mm 1 mps 745 mmHg 75%
    22:00 +4°C° 0 mm 1 mps 745 mmHg 76%
    23:00 +3°C° 0 mm 1 mps 746 mmHg 77%

    24 November, Saturday

    Time Temperature Precipitation Wind Pressure Humidity
    00:00 +3°C° 0 mm 1 mps 745 mmHg 77%
    01:00 +3°C° 0 mm 1 mps 745 mmHg 78%
    02:00 +3°C° 0 mm 1 mps 745 mmHg 78%
    03:00 +3°C° 0 mm 1 mps 745 mmHg 78%
    04:00 +3°C° 0 mm 1 mps 744 mmHg 78%
    05:00 +2°C° 0 mm 1 mps 744 mmHg 78%
    06:00 +3°C° 0 mm 1 mps 744 mmHg 77%
    07:00 +3°C° 0 mm 1 mps 744 mmHg 76%
    08:00 +3°C° 0 mm 1 mps 744 mmHg 75%
    09:00 +4°C° 0 mm 1 mps 743 mmHg 70%
    10:00 +6°C° 0 mm 1 mps 743 mmHg 65%
    11:00 +7°C° 0 mm 1 mps 743 mmHg 60%
    12:00 +8°C° 0 mm 1 mps 742 mmHg 59%
    13:00 +9°C° 0 mm 1 mps 742 mmHg 57%
    14:00 +10°C° 0 mm 1 mps 741 mmHg 55%
    15:00 +9°C° 0 mm 1 mps 741 mmHg 59%
    16:00 +7°C° 0 mm 1 mps 741 mmHg 63%
    17:00 +6°C° 0 mm 1 mps 740 mmHg 67%
    18:00 +6°C° 0 mm 1 mps 740 mmHg 67%
    19:00 +6°C° 0 mm 1 mps 740 mmHg 67%
    20:00 +6°C° 0 mm 1 mps 740 mmHg 66%
    21:00 +6°C° 0 mm 1 mps 740 mmHg 67%
    22:00 +6°C° 0 mm 1 mps 740 mmHg 67%
    23:00 +6°C° 0 mm 1 mps 740 mmHg 67%

    25 November, Sunday

    Time Temperature Precipitation Wind Pressure Humidity
    00:00 +6°C° 0 mm 1 mps 739 mmHg 68%
    01:00 +5°C° 0 mm 1 mps 739 mmHg 70%
    02:00 +5°C° 0 mm 1 mps 739 mmHg 71%
    03:00 +5°C° 0 mm 1 mps 738 mmHg 71%
    04:00 +5°C° 0 mm 1 mps 738 mmHg 72%
    05:00 +5°C° 0 mm 1 mps 738 mmHg 73%
    06:00 +5°C° 0 mm 1 mps 738 mmHg 73%
    07:00 +5°C° 0 mm 1 mps 737 mmHg 73%
    08:00 +5°C° 0 mm 1 mps 737 mmHg 73%
    09:00 +7°C° 0 mm 1 mps 737 mmHg 69%
    10:00 +9°C° 0 mm 1 mps 737 mmHg 64%
    11:00 +11°C° 0 mm 1 mps 737 mmHg 60%
    12:00 +11°C° 0 mm 0 mps 736 mmHg 58%
    13:00 +11°C° 0 mm 0 mps 736 mmHg 57%
    14:00 +12°C° 0 mm 0 mps 735 mmHg 55%
    15:00 +12°C° 0 mm 1 mps 735 mmHg 60%
    16:00 +11°C° 0 mm 1 mps 735 mmHg 65%
    17:00 +9°C° 0 mm 1 mps 734 mmHg 70%
    18:00 +9°C° 0 mm 1 mps 734 mmHg 71%
    19:00 +9°C° 0 mm 1 mps 734 mmHg 72%
    20:00 +8°C° 0 mm 1 mps 734 mmHg 73%
    21:00 +8°C° 0 mm 1 mps 734 mmHg 73%
    22:00 +8°C° 0 mm 1 mps 734 mmHg 73%
    23:00 +7°C° 0 mm 2 mps 734 mmHg 73%

    26 November, Monday

    Time Temperature Precipitation Wind Pressure Humidity
    00:00 +8°C° 0 mm 1 mps 733 mmHg 74%
    01:00 +8°C° 0 mm 1 mps 733 mmHg 75%
    02:00 +8°C° 0 mm 1 mps 732 mmHg 76%
    03:00 +8°C° 0.2 mm 1 mps 732 mmHg 78%
    04:00 +8°C° 0.2 mm 1 mps 731 mmHg 80%
    05:00 +8°C° 0.2 mm 1 mps 731 mmHg 82%
    06:00 +8°C° 0.4 mm 1 mps 731 mmHg 84%
    07:00 +7°C° 0.4 mm 2 mps 730 mmHg 86%
    08:00 +7°C° 0.4 mm 2 mps 730 mmHg 88%
    09:00 +7°C° 0.3 mm 2 mps 730 mmHg 87%
    10:00 +8°C° 0.3 mm 2 mps 729 mmHg 86%
    11:00 +9°C° 0.3 mm 1 mps 729 mmHg 85%
    12:00 +8°C° 0.3 mm 2 mps 729 mmHg 85%
    13:00 +8°C° 0.3 mm 2 mps 728 mmHg 85%
    14:00 +8°C° 0.3 mm 2 mps 728 mmHg 85%
    15:00 +8°C° 0.8 mm 2 mps 728 mmHg 87%
    16:00 +7°C° 0.8 mm 2 mps 728 mmHg 89%
    17:00 +6°C° 0.8 mm 2 mps 729 mmHg 91%
    18:00 +6°C° 0.1 mm 2 mps 729 mmHg 91%
    19:00 +6°C° 0.1 mm 2 mps 730 mmHg 90%
    20:00 +6°C° 0.1 mm 2 mps 730 mmHg 90%
    21:00 +5°C° 0 mm 2 mps 731 mmHg 91%
    22:00 +6°C° 0 mm 1 mps 731 mmHg 92%
    23:00 +6°C° 0 mm 1 mps 731 mmHg 92%
    Show more